This is the latest recevied weather packets stored in our database for station/object KC2WGU. If no packets are shown the sender has not sent any weather packets the latest 10 day(s).
| Time | Temp. | Humidity | Pressure | Rain* | Wind** | Luminosity | Snow |
|---|---|---|---|---|---|---|---|
| 1777912220 | 17.78° C | 51% | 1005.5 hPa | 0 mm | - | 0 W/m² | - |
| 1777911621 | 17.78° C | 50% | 1005.7 hPa | 0 mm | - | 0 W/m² | - |
| 1777911020 | 17.78° C | 53% | 1005.8 hPa | 0 mm | - | 0 W/m² | - |
| 1777910421 | 17.22° C | 52% | 1006.1 hPa | 0 mm | - | 0 W/m² | - |
| 1777909821 | 17.22° C | 54% | 1006.1 hPa | 0 mm | - | 0 W/m² | - |
| 1777909221 | 16.67° C | 55% | 1006.1 hPa | 0 mm | - | 0 W/m² | - |
| 1777908621 | 15.56° C | 55% | 1006.2 hPa | 0 mm | - | 0 W/m² | - |
| 1777908020 | 15° C | 55% | 1006.4 hPa | 0 mm | - | 0 W/m² | - |
| 1777907422 | 14.44° C | 54% | 1006.4 hPa | 0 mm | - | 0 W/m² | - |
| 1777906821 | 14.44° C | 55% | 1006.3 hPa | 0 mm | - | 0 W/m² | - |
| 1777906221 | 14.44° C | 54% | 1006.3 hPa | 0 mm | - | 0 W/m² | - |
| 1777905620 | 13.89° C | 54% | 1006.3 hPa | 0 mm | - | 0 W/m² | - |
| 1777905022 | 13.89° C | 54% | 1006.2 hPa | 0 mm | - | 0 W/m² | - |
| 1777904422 | 15° C | 52% | 1006.4 hPa | 0 mm | - | 0 W/m² | - |
| 1777903821 | 13.89° C | 56% | 1006.4 hPa | 0 mm | - | 0 W/m² | - |
| 1777903221 | 13.89° C | 53% | 1006.4 hPa | 0 mm | - | 0 W/m² | - |
| 1777902620 | 14.44° C | 52% | 1006.5 hPa | 0 mm | - | 0 W/m² | - |
| 1777902021 | 13.89° C | 54% | 1006.5 hPa | 0 mm | - | 0 W/m² | - |
| 1777901421 | 13.33° C | 53% | 1006.4 hPa | 0 mm | - | 0 W/m² | - |
| 1777900821 | 12.78° C | 55% | 1006.5 hPa | 0 mm | - | 0 W/m² | - |
| 1777900220 | 12.22° C | 56% | 1006.7 hPa | 0 mm | - | 0 W/m² | - |
| 1777899621 | 11.67° C | 57% | 1006.8 hPa | 0 mm | - | 0 W/m² | - |
| 1777899021 | 11.67° C | 58% | 1006.9 hPa | 0 mm | - | 0 W/m² | - |
| 1777898423 | 11.11° C | 57% | 1007 hPa | 0 mm | - | 0 W/m² | - |
| 1777897823 | 11.11° C | 58% | 1007 hPa | 0 mm | - | 0 W/m² | - |
* Rain latest hour (hover to see other rain measurements)
** Current wind speed in m/s (hover to see current wind gust speed)